Hourly Weather Rut

Today, 13 April, Tuesday

Time Temperature Precipitation Wind Pressure Humidity
00:00 +8°C° 0 mm 3 mps 751 mmHg 92%
01:00 +8°C° 0 mm 2 mps 751 mmHg 94%
02:00 +7°C° 0 mm 2 mps 751 mmHg 95%
03:00 +7°C° 0 mm 2 mps 751 mmHg 95%
04:00 +8°C° 0 mm 1 mps 751 mmHg 95%
05:00 +7°C° 0 mm 1 mps 751 mmHg 94%
06:00 +9°C° 0 mm 1 mps 751 mmHg 89%
07:00 +10°C° 0 mm 1 mps 751 mmHg 83%
08:00 +11°C° 0 mm 1 mps 750 mmHg 78%
09:00 +12°C° 0 mm 2 mps 750 mmHg 73%
10:00 +14°C° 0 mm 2 mps 750 mmHg 68%
11:00 +15°C° 0 mm 2 mps 750 mmHg 63%
12:00 +14°C° 0 mm 2 mps 750 mmHg 68%
13:00 +14°C° 0 mm 2 mps 750 mmHg 74%
14:00 +13°C° 0 mm 2 mps 750 mmHg 79%
15:00 +13°C° 0.2 mm 2 mps 749 mmHg 84%
16:00 +12°C° 0.2 mm 2 mps 749 mmHg 88%
17:00 +12°C° 0.2 mm 1 mps 749 mmHg 92%
18:00 +10°C° 0.4 mm 2 mps 748 mmHg 94%
19:00 +10°C° 0.4 mm 2 mps 748 mmHg 95%
20:00 +10°C° 0.4 mm 2 mps 748 mmHg 96%
21:00 +10°C° 0.6 mm 2 mps 748 mmHg 96%
22:00 +10°C° 0.6 mm 2 mps 748 mmHg 96%
23:00 +10°C° 0.6 mm 2 mps 747 mmHg 97%

Tomorrow, 14 April, Wednesday

Time Temperature Precipitation Wind Pressure Humidity
00:00 +9°C° 0.6 mm 2 mps 747 mmHg 97%
01:00 +9°C° 0.6 mm 2 mps 747 mmHg 97%
02:00 +9°C° 0.6 mm 3 mps 747 mmHg 97%
03:00 +9°C° 0.4 mm 2 mps 747 mmHg 97%
04:00 +8°C° 0.4 mm 2 mps 747 mmHg 97%
05:00 +8°C° 0.4 mm 2 mps 747 mmHg 96%
06:00 +8°C° 0.2 mm 2 mps 747 mmHg 95%
07:00 +8°C° 0.2 mm 2 mps 747 mmHg 94%
08:00 +8°C° 0.2 mm 2 mps 747 mmHg 93%
09:00 +8°C° 0.1 mm 2 mps 747 mmHg 90%
10:00 +9°C° 0.1 mm 2 mps 747 mmHg 87%
11:00 +10°C° 0.1 mm 2 mps 748 mmHg 84%
12:00 +10°C° 0.1 mm 2 mps 747 mmHg 83%
13:00 +10°C° 0.1 mm 2 mps 747 mmHg 83%
14:00 +10°C° 0.1 mm 2 mps 747 mmHg 83%
15:00 +10°C° 0.1 mm 3 mps 747 mmHg 82%
16:00 +10°C° 0.1 mm 3 mps 747 mmHg 81%
17:00 +10°C° 0.1 mm 3 mps 747 mmHg 80%
18:00 +10°C° 0.1 mm 3 mps 747 mmHg 83%
19:00 +8°C° 0.1 mm 4 mps 747 mmHg 86%
20:00 +7°C° 0.1 mm 4 mps 747 mmHg 89%
21:00 +6°C° 0.1 mm 4 mps 747 mmHg 91%
22:00 +6°C° 0.1 mm 4 mps 747 mmHg 92%
23:00 +7°C° 0.1 mm 3 mps 747 mmHg 94%

Day after tomorrow, 15 April, Thursday

Time Temperature Precipitation Wind Pressure Humidity
00:00 +5°C° 0.1 mm 3 mps 747 mmHg 94%
01:00 +5°C° 0.1 mm 3 mps 747 mmHg 95%
02:00 +5°C° 0.1 mm 3 mps 747 mmHg 95%
03:00 +5°C° 0.6 mm 3 mps 747 mmHg 96%
04:00 +5°C° 0.6 mm 3 mps 747 mmHg 96%
05:00 +5°C° 0.6 mm 3 mps 747 mmHg 96%
06:00 +5°C° 0.2 mm 3 mps 747 mmHg 96%
07:00 +5°C° 0.2 mm 3 mps 747 mmHg 95%
08:00 +5°C° 0.2 mm 3 mps 747 mmHg 94%
09:00 +5°C° 0.1 mm 3 mps 747 mmHg 93%
10:00 +7°C° 0.1 mm 3 mps 747 mmHg 91%
11:00 +7°C° 0.1 mm 2 mps 747 mmHg 89%
12:00 +8°C° 0 mm 3 mps 747 mmHg 89%
13:00 +8°C° 0 mm 3 mps 747 mmHg 89%
14:00 +9°C° 0 mm 3 mps 747 mmHg 88%
15:00 +9°C° 0 mm 3 mps 747 mmHg 89%
16:00 +9°C° 0 mm 3 mps 747 mmHg 90%
17:00 +8°C° 0 mm 4 mps 747 mmHg 92%
18:00 +8°C° 0.4 mm 4 mps 747 mmHg 93%
19:00 +8°C° 0.4 mm 4 mps 747 mmHg 94%
20:00 +8°C° 0.4 mm 4 mps 747 mmHg 96%
21:00 +8°C° 0.5 mm 4 mps 747 mmHg 95%
22:00 +8°C° 0.5 mm 4 mps 747 mmHg 95%
23:00 +8°C° 0.5 mm 4 mps 747 mmHg 95%

16 April, Friday

Time Temperature Precipitation Wind Pressure Humidity
00:00 +8°C° 0.3 mm 5 mps 747 mmHg 94%
01:00 +8°C° 0.3 mm 5 mps 747 mmHg 93%
02:00 +8°C° 0.3 mm 6 mps 747 mmHg 92%
03:00 +7°C° 0 mm 6 mps 747 mmHg 92%
04:00 +7°C° 0 mm 6 mps 747 mmHg 92%
05:00 +7°C° 0 mm 6 mps 747 mmHg 91%
06:00 +7°C° 0 mm 6 mps 748 mmHg 90%
07:00 +7°C° 0 mm 6 mps 748 mmHg 88%
08:00 +7°C° 0 mm 6 mps 748 mmHg 87%
09:00 +8°C° 0.1 mm 6 mps 748 mmHg 84%
10:00 +9°C° 0.1 mm 6 mps 749 mmHg 82%
11:00 +9°C° 0.1 mm 6 mps 749 mmHg 80%
12:00 +10°C° 0 mm 6 mps 749 mmHg 78%
13:00 +10°C° 0 mm 6 mps 749 mmHg 77%
14:00 +11°C° 0 mm 6 mps 749 mmHg 75%
15:00 +10°C° 0.1 mm 6 mps 749 mmHg 77%
16:00 +10°C° 0.1 mm 7 mps 749 mmHg 79%
17:00 +9°C° 0.1 mm 7 mps 750 mmHg 82%
18:00 +9°C° 0.1 mm 6 mps 750 mmHg 84%
19:00 +8°C° 0.1 mm 6 mps 750 mmHg 86%
20:00 +8°C° 0.1 mm 6 mps 751 mmHg 88%
21:00 +8°C° 0.2 mm 6 mps 751 mmHg 88%
22:00 +8°C° 0.2 mm 5 mps 751 mmHg 87%
23:00 +8°C° 0.2 mm 5 mps 752 mmHg 86%

17 April, Saturday

Time Temperature Precipitation Wind Pressure Humidity
00:00 +7°C° 0 mm 5 mps 752 mmHg 85%
01:00 +7°C° 0 mm 5 mps 752 mmHg 84%
02:00 +7°C° 0 mm 5 mps 752 mmHg 83%
03:00 +6°C° 0 mm 5 mps 752 mmHg 84%
04:00 +5°C° 0 mm 5 mps 753 mmHg 84%
05:00 +5°C° 0 mm 5 mps 753 mmHg 84%
06:00 +5°C° 0 mm 5 mps 753 mmHg 81%
07:00 +5°C° 0 mm 6 mps 754 mmHg 78%
08:00 +7°C° 0 mm 6 mps 754 mmHg 75%
09:00 +8°C° 0 mm 6 mps 754 mmHg 70%
10:00 +9°C° 0 mm 6 mps 755 mmHg 65%
11:00 +10°C° 0 mm 6 mps 755 mmHg 61%
12:00 +11°C° 0 mm 6 mps 755 mmHg 57%
13:00 +13°C° 0 mm 6 mps 755 mmHg 54%
14:00 +14°C° 0 mm 6 mps 755 mmHg 50%
15:00 +14°C° 0 mm 6 mps 755 mmHg 50%
16:00 +13°C° 0 mm 6 mps 755 mmHg 49%
17:00 +13°C° 0 mm 5 mps 755 mmHg 49%
18:00 +10°C° 0 mm 5 mps 756 mmHg 54%
19:00 +10°C° 0 mm 4 mps 756 mmHg 59%
20:00 +8°C° 0 mm 3 mps 757 mmHg 64%
21:00 +7°C° 0 mm 3 mps 757 mmHg 67%
22:00 +6°C° 0 mm 4 mps 757 mmHg 69%
23:00 +5°C° 0 mm 4 mps 757 mmHg 71%

18 April, Sunday

Time Temperature Precipitation Wind Pressure Humidity
00:00 +5°C° 0 mm 4 mps 757 mmHg 73%
01:00 +4°C° 0 mm 3 mps 757 mmHg 75%
02:00 +3°C° 0 mm 3 mps 758 mmHg 77%
03:00 +3°C° 0 mm 3 mps 758 mmHg 79%
04:00 +3°C° 0 mm 3 mps 758 mmHg 80%
05:00 +2°C° 0 mm 3 mps 758 mmHg 82%
06:00 +4°C° 0 mm 4 mps 758 mmHg 76%
07:00 +5°C° 0 mm 4 mps 758 mmHg 70%
08:00 +6°C° 0 mm 4 mps 759 mmHg 64%
09:00 +8°C° 0 mm 4 mps 759 mmHg 59%
10:00 +9°C° 0 mm 5 mps 759 mmHg 53%
11:00 +12°C° 0 mm 5 mps 759 mmHg 48%
12:00 +12°C° 0 mm 5 mps 759 mmHg 46%
13:00 +13°C° 0 mm 5 mps 759 mmHg 44%
14:00 +13°C° 0 mm 5 mps 758 mmHg 43%
15:00 +13°C° 0 mm 4 mps 758 mmHg 45%
16:00 +13°C° 0 mm 4 mps 758 mmHg 48%
17:00 +13°C° 0 mm 3 mps 758 mmHg 50%
18:00 +11°C° 0 mm 3 mps 758 mmHg 56%
19:00 +10°C° 0 mm 3 mps 758 mmHg 62%
20:00 +8°C° 0 mm 3 mps 759 mmHg 69%
21:00 +7°C° 0 mm 3 mps 759 mmHg 70%
22:00 +7°C° 0 mm 3 mps 759 mmHg 72%
23:00 +6°C° 0 mm 2 mps 759 mmHg 74%
Show more